Lafayette, IN

2:00 AM EDT on April 24, 2018 (GMT -0400)
Purdue Univ

Weather History for KLAF - July, 2013

Change the Weather History Date:

Thursday, July 4, 2013

  Actual Average Record
Temperature  
Mean Temperature 68 °F 75 °F  
Max Temperature 78 °F 85 °F 100 °F (2012)
Min Temperature 57 °F 64 °F 49 °F (1968)
Degree Days  
Heating Degree Days 0 0  
Month to date heating degree days 0 0  
Since 1 June heating degree days 18 22  
Since 1 July heating degree days 0 0  
Cooling Degree Days 3 10  
Month to date cooling degree days 10 40  
Year to date cooling degree days 289 334  
Since 1 June cooling degree days 188 257  
Growing Degree Days 17 (Base 50)    
Moisture  
Dew Point 59 °F    
Average Humidity 77    
Maximum Humidity 100    
Minimum Humidity 54    
Precipitation  
Precipitation 0.00 in 0.14 in 3.40 in (1979)
Month to date precipitation T 0.53  
Year to date precipitation 22.89 18.65  
Sea Level Pressure  
Sea Level Pressure 30.10 in    
Wind  
Wind Speed 2 mph (ESE)    
Max Wind Speed 9 mph    
Max Gust Speed 12 mph    
Visibility 4 miles    
Events Fog    
T = Trace of Precipitation, MM = Missing Value Source: NWS Daily Summary

Daily Weather History Graph

Daily Weather History Graph

Search for Another Location

Airport or City:

Astronomy

Jul. 04, 2013 Rise Set
Actual Time 6:23 AM EDT 9:21 PM EDT
Civil Twilight 5:50 AM EDT 9:54 PM EDT
Nautical Twilight 5:08 AM EDT 10:35 PM EDT
Astronomical Twilight 4:20 AM EDT 11:23 PM EDT
Moon 3:39 AM EDT (7/4) 6:25 PM EDT (7/4)
Length of Visible Light 16h 03m
Length of Day
14h 58m
Waning Crescent, 11% of the Moon is Illuminated
Jul 4
Waning Crescent
Jul 8
New
Jul 15
First Quarter
Jul 22
Full
Jul 29
Last Quarter

Hourly Weather History & Observations

Time (EDT) Temp. Dew Point Humidity Pressure Visibility Wind Dir Wind Speed Gust Speed Precip Events Conditions
12:54 AM 62.1 °F 61.0 °F 96% 30.09 in 6.0 mi Calm Calm - N/A   Clear
12:57 AM 62.6 °F 60.8 °F 94% 30.10 in 1.8 mi Calm Calm - N/A   Clear
1:06 AM 62.6 °F 60.8 °F 94% 30.10 in 0.8 mi Calm Calm - N/A   Clear
1:14 AM 60.8 °F 60.8 °F 100% 30.10 in 2.0 mi Calm Calm - N/A   Clear
1:21 AM 60.8 °F 60.8 °F 100% 30.10 in 1.0 mi Calm Calm - N/A   Mist
1:28 AM 60.8 °F 60.8 °F 100% 30.10 in 0.5 mi Calm Calm - N/A Fog Fog
1:40 AM 60.8 °F 59.0 °F 94% 30.10 in 1.2 mi Calm Calm - N/A   Partly Cloudy
1:47 AM 60.8 °F 60.8 °F 100% 30.10 in 0.8 mi Calm Calm - N/A   Mist
1:54 AM 61.0 °F 60.1 °F 97% 30.09 in 0.8 mi Calm Calm - N/A   Mist
1:56 AM 60.8 °F 60.8 °F 100% 30.09 in 1.5 mi Calm Calm - N/A   Partly Cloudy
2:03 AM 60.8 °F 60.8 °F 100% 30.10 in 0.8 mi Calm Calm - N/A   Mist
2:15 AM 60.8 °F 60.8 °F 100% 30.09 in 1.2 mi Calm Calm - N/A   Partly Cloudy
2:17 AM 60.8 °F 60.8 °F 100% 30.09 in 3.0 mi Calm Calm - N/A   Clear
2:25 AM 60.8 °F 60.8 °F 100% 30.10 in 2.5 mi Calm Calm - N/A   Partly Cloudy
2:37 AM 60.8 °F 59.0 °F 94% 30.10 in 2.0 mi Calm Calm - N/A   Mostly Cloudy
2:44 AM 60.8 °F 59.0 °F 94% 30.10 in 1.2 mi Calm Calm - N/A   Mostly Cloudy
2:54 AM 60.1 °F 59.0 °F 96% 30.09 in 0.2 mi Calm Calm - N/A Fog Fog
3:49 AM 59.0 °F 57.2 °F 94% 30.10 in 0.5 mi Calm Calm - N/A Fog Fog
3:50 AM 59.0 °F 57.9 °F 96% 30.09 in 0.5 mi Calm Calm - N/A Fog Fog
4:01 AM 59.0 °F 57.2 °F 94% 30.10 in 0.2 mi Calm Calm - N/A Fog Fog
4:54 AM 57.9 °F 57.0 °F 97% 30.10 in 0.2 mi Calm Calm - N/A Fog Fog
5:00 AM 57.2 °F 55.4 °F 94% 30.10 in 1.0 mi Calm Calm - N/A   Mist
5:13 AM 57.2 °F 55.4 °F 94% 30.11 in 0.2 mi Calm Calm - N/A Fog Fog
5:22 AM 57.2 °F 55.4 °F 94% 30.11 in 0.2 mi Calm Calm - N/A Fog Fog
5:54 AM 57.0 °F 55.9 °F 96% 30.11 in 0.2 mi Calm Calm - N/A Fog Fog
6:14 AM 57.2 °F 55.4 °F 94% 30.11 in 1.0 mi East 3.5 mph - N/A   Mist
6:16 AM 57.2 °F 55.4 °F 94% 30.11 in 2.0 mi ESE 3.5 mph - N/A   Scattered Clouds
6:18 AM 57.2 °F 55.4 °F 94% 30.11 in 0.8 mi ESE 4.6 mph - N/A   Mist
6:27 AM 57.2 °F 57.2 °F 100% 30.12 in 0.2 mi Calm Calm - N/A Fog Fog
6:54 AM 57.9 °F 55.9 °F 93% 30.11 in 10.0 mi Calm Calm - N/A Fog Shallow Fog
7:54 AM 62.1 °F 60.1 °F 93% 30.12 in 4.0 mi Calm Calm - N/A   Partly Cloudy
8:54 AM 64.9 °F 62.1 °F 90% 30.13 in 6.0 mi Calm Calm - N/A   Clear
9:54 AM 70.0 °F 64.0 °F 81% 30.14 in 10.0 mi Calm Calm - N/A   Clear
10:54 AM 75.0 °F 62.1 °F 64% 30.14 in 10.0 mi Calm Calm - N/A   Clear
11:54 AM 75.9 °F 57.0 °F 52% 30.13 in 10.0 mi SSE 4.6 mph - N/A   Clear
12:54 PM 75.0 °F 57.0 °F 53% 30.13 in 10.0 mi SE 3.5 mph - N/A   Clear
1:54 PM 75.9 °F 57.0 °F 52% 30.13 in 10.0 mi ESE 3.5 mph - N/A   Clear
2:54 PM 77.0 °F 60.1 °F 56% 30.11 in 10.0 mi East 4.6 mph - N/A   Clear
3:54 PM 75.9 °F 60.1 °F 58% 30.10 in 10.0 mi ESE 6.9 mph - N/A   Clear
4:54 PM 75.9 °F 60.1 °F 58% 30.09 in 10.0 mi ESE 5.8 mph - N/A   Clear
5:54 PM 75.9 °F 59.0 °F 56% 30.08 in 10.0 mi ESE 4.6 mph - N/A   Clear
6:54 PM 75.0 °F 57.9 °F 55% 30.07 in 10.0 mi East 5.8 mph - N/A   Clear
7:54 PM 73.0 °F 60.1 °F 64% 30.06 in 10.0 mi East 3.5 mph - N/A   Clear
8:54 PM 70.0 °F 63.0 °F 78% 30.07 in 10.0 mi Calm Calm - N/A   Clear
9:54 PM 68.0 °F 61.0 °F 78% 30.07 in 10.0 mi Calm Calm - N/A   Clear
10:54 PM 66.9 °F 61.0 °F 81% 30.08 in 10.0 mi Calm Calm - N/A   Mostly Cloudy
11:54 PM 66.0 °F 62.1 °F 87% 30.07 in 7.0 mi Calm Calm - N/A   Mostly Cloudy